Location: Altleiningen
(49.5078°N, 8.0741°E)
Time: 18:07:59
(UTC+00:00)

USA 307 - Visible Passes

Search period start: 22 June 2021 00:00
Search period end: 02 July 2021 00:00
Orbit: 566 x 577 km, 54.0° (Epoch: 10 May)

Date Brightness Start Highest point End Pass type
(mag) Time Alt. Az. Time Alt. Az. Time Alt. Az.
22 Jun 3.4 00:40:16 29° SSW 00:41:55 43° SE 00:45:58 10° ENE visible
22 Jun 3.4 02:17:37 10° W 02:21:50 61° NNW 02:26:04 10° ENE visible
22 Jun 5.1 23:05:10 12° ESE 23:05:10 12° ESE 23:06:11 10° E visible
23 Jun 3.0 00:41:14 27° SW 00:43:23 59° SSE 00:47:34 10° ENE visible
23 Jun 3.6 02:19:16 10° W 02:23:27 53° NNW 02:27:37 10° ENE visible
23 Jun 4.5 23:06:04 19° ESE 23:06:04 19° ESE 23:08:28 10° E visible
24 Jun 2.8 00:42:07 21° SW 00:44:52 79° SSE 00:49:08 10° ENE visible
24 Jun 3.9 02:20:57 10° W 02:25:04 48° N 02:29:13 10° ENE visible
24 Jun 3.9 23:06:51 27° SE 23:06:51 27° SE 23:10:21 10° ENE visible
25 Jun 2.9 00:42:54 15° WSW 00:46:24 82° NNW 00:50:41 10° ENE visible
25 Jun 4.0 02:22:37 10° WNW 02:26:43 45° N 02:30:50 10° ENE visible
25 Jun 3.4 23:07:29 35° SSE 23:08:08 37° SE 23:12:04 10° ENE visible
26 Jun 3.2 00:43:43 10° WSW 00:47:58 67° NNW 00:52:13 10° ENE visible
26 Jun 4.1 02:24:16 10° WNW 02:28:21 45° N 02:32:27 10° ENE visible
26 Jun 3.0 23:07:54 32° SSW 23:09:33 52° SE 23:13:42 10° ENE visible
27 Jun 3.5 00:45:21 10° W 00:49:33 56° NNW 00:53:45 10° ENE visible
27 Jun 4.0 02:25:53 10° WNW 02:30:00 46° N 02:34:07 10° E visible
27 Jun 4.5 21:32:00 16° SE 21:32:00 16° SE 21:34:20 10° E visible
27 Jun 2.8 23:07:58 18° SW 23:11:01 70° SSE 23:15:15 10° ENE visible
28 Jun 3.8 00:47:00 10° W 00:51:09 50° N 00:55:18 10° ENE visible
28 Jun 3.9 02:27:27 10° WNW 02:31:37 50° N 02:35:46 10° E visible
28 Jun 4.0 21:31:20 19° SSE 21:32:56 23° SE 21:36:20 10° E visible
28 Jun 2.8 23:08:13 10° WSW 23:12:30 90° NNW 23:16:47 10° ENE visible
29 Jun 4.0 00:48:39 10° W 00:52:46 46° N 00:56:53 10° ENE visible
29 Jun 3.7 02:29:01 10° WNW 02:33:13 57° NNE 02:37:24 10° E visible
29 Jun 3.6 21:30:28 10° SSW 21:34:17 32° SE 21:38:06 10° ENE visible
29 Jun 3.1 23:09:46 10° WSW 23:14:02 73° NNW 23:18:18 10° ENE visible
30 Jun 4.1 00:50:17 10° WNW 00:54:24 45° N 00:58:30 10° ENE visible
30 Jun 3.3 02:30:32 10° WNW 02:34:47 68° NNE 02:39:01 10° ESE visible
30 Jun 3.1 21:31:35 10° SW 21:35:39 45° SE 21:39:44 10° ENE visible
30 Jun 3.4 23:11:21 10° W 23:15:35 60° NNW 23:19:48 10° ENE visible
01 Jul 4.1 00:51:54 10° WNW 00:56:01 45° N 01:00:08 10° ENE visible
01 Jul 3.0 02:32:02 10° WNW 02:36:19 84° NNE 02:40:35 10° ESE visible
01 Jul 2.8 21:32:52 10° SW 21:37:05 61° SSE 21:41:18 10° ENE visible
01 Jul 3.7 23:12:59 10° W 23:17:10 52° NNW 23:21:21 10° ENE visible
